COSMOS 2535

导读 | 豆包AI

COSMOS 2535(宇宙-2535)是独联体(CIS)俄罗斯发射的军用卫星,于2019年7月10日在普列谢茨克航天发射场由“联盟-2.1V”运载火箭送入太空。它是俄罗斯太空在轨维护技术试验卫星,曾搭档COSMOS 2535完成在轨状态检查任务,可记录太空环境对航天器的影响,为空间技术验证和太空态势感知提供关键数据,其任务凸显了俄罗斯在空间态势感知领域的技术布局。

Basic Information
目录编号:
44421
目录名称:
COSMOS 2535
国际标识:
2019-039A
轨道中心:
EARTH
卫星名称:
COSMOS 2535
卫星全名:
--
卫星状态:
在轨 (已飞行2487 天)
发射日期:
2019-07-10 UTC
国别 :
俄罗斯(独联体) (CIS)
星等 :
--
Orbit Information
数据来源 国际轨道数据 AOE轨道数据
星历时间 2026-05-01T07:48:08+0800
6小时前
查看轨道信息
2026-05-01T05:00:00+0800
9小时前
查看轨道信息
半长轴 6970.319km 6970.273km
偏心率 0.0008672 0.0008764
轨道倾角 97.580° 97.581°
近地点辐角 21.255° 21.823°
升交点赤经 150.957° 150.847°
平近点角 338.903° 71.683°
近地点 586.137km 586.027km
远地点 598.227km 598.245km
周期 96.525分钟 96.524分钟
每日圈数 14.918454 14.918601
Detailed Information
使用方式:
暂无
2D Orbit Map
3D Orbit Map
Orbit Altitude Analysis Chart
Orbit Inclination Analysis Chart
Orbit Comprehensive Analysis Chart
View Comprehensive Chart